Torna al catalogo

BEIYOU-3

AttivoScienzaSSO
NORAD 64053·PAYLOAD·🇨🇳 China
Questo nome del satellite non è ancora stato confermato da fonti ufficiali.

Lanciato May 17, 2025 da Jiuquan Satellite Launch Center

Loading…

Prossimi Passaggi (prossime 24 ore)

TLE

AggiornatoSource: Space-Track

Epoca: Sep 14, 2026, 12:51 UTC

1 64053U 25103F   26257.53582269  .00002847  00000-0  13711-3 0  9998
2 64053  97.3729 326.9562 0002572 183.3876 176.7342 15.19540791 73611

Traccia BEIYOU-3 in tempo reale con AllMySat

Download on the App Store